THOR ABLESTAR DEB, 355

Orbit data source: Space-Track

THOR ABLESTAR DEB, 355 is space debris in LEO originally from a launch on Thu, 29 Jun 1961 UTC launched from the Air Force Eastern Test Range (AFETR). Debris objects in space refer to the collection of defunct objects orbiting the Earth. Examples of debris include non-operational satellites, rocket bodies, and fragments generated from explosions, collisions, or faulty payload assembly.

Loading next visibility...
Identifier
355, 1961-015DV
Orbit
LEO
Country
Flag of USUS
Related business
Manufacturer
Unknown
Mission
Spacecraft
Bus & Motor
Unknown
Mass
Unknown
Launch date (UTC)
1961-06-29 (64 years ago)
Launch vehicle
Unknown
Launch site
Air Force Eastern Test Range (AFETR)
Object type
Payload
Rocket body
Debris
Shape & HBR
Unknown shape, 0.1 m
Radar Cross Section
Medium (>0.1 m² and <1 m²)

Expand to show TLE details & history
Last TLE update: 18 hours ago

TLE from 18 hours ago
0 THOR ABLESTAR DEB
1 00355U 61015DV  25349.49457748  .00000544  00000-0  10357-2 0  9998
2 00355  67.2270  48.9385 0243214 335.3182 126.2981 13.33936821124529
Epoch: 2025-12-15T11:52Z
TLE epoch observation values (Epoch: 2025-12-15T11:52:11.494Z)
Latitude
63.65933°
Longitude
-91.02901°
Altitude
1,253.074 km
Speed
7.181 km/s
True Right ascension
11h 25m 38s
True Declination
63° 31' 52"
Sunlit
Object was in daylight at epoch
Visualization orbit readout
Latitude
Unknown
Longitude
Unknown
Altitude
Unknown
Speed
Unknown
Apparent Right ascension
Unknown
Apparent Declination
Unknown
Sunlit
N/A
Visualization observer readout
Local Sidereal Time
04:07:22
Azimuth
Unknown
Elevation
Unknown
Doppler factor
Unknown
Orbital elements
Apogee altitude
1,312.957 km
Perigee altitude
947.723 km
Semi-major axis
7,508.477 km
Eccentricity
0.02432
Inclination
67.227°
RAAN
48.9385°
Arg. of periapsis
335.3182°
True anomaly
128.50402°
Mean anomaly
126.2981°
Eccentric anomaly
127.40505°
Mean motion
3.33592 °/min
Orbital period
107.92 mins
BSTAR
0.0010357
Loading maneuver chart data...
Computing Atmospheric mass density...

Documentation

Showing up to 5 results
|